GFSFLT2_prec_cthk_276.txt.gz
RH
13 15 17 17 17 14 12 13 13 14 14 13 13 14 13 13 14 14 13 13 13 14 14 14 15 15 16 17 18 19 20 25
16 15 15 17 17 17 15 13 13 13 14 14 14 15 15 15 14 13 13 13 13 13 13 13 14 14 15 15 16 17 18 23
23 21 17 17 17 17 17 16 15 14 14 14 14 15 16 16 16 15 15 14 13 13 14 14 14 14 14 15 15 16 21 21
28 28 26 21 19 19 18 19 18 16 15 15 15 15 16 16 16 16 15 15 14 14 14 15 15 16 18 15 15 18 20 21
29 28 30 30 28 23 22 20 21 19 17 16 16 17 17 17 18 16 16 15 15 15 14 15 15 19 21 22 21 22 23 22
33 32 29 30 34 32 26 23 23 23 21 18 18 19 21 20 21 21 17 18 16 17 20 20 20 21 22 24 25 26 26 25
36 38 31 30 30 33 33 29 22 21 23 22 18 22 22 23 20 21 21 21 20 20 22 27 29 27 28 29 28 27 27 29
35 35 36 35 34 34 35 32 32 25 21 19 15 16 20 22 20 21 22 23 25 26 30 33 36 39 40 38 37 36 34 33
37 37 36 37 37 36 35 34 35 33 30 24 19 15 16 19 21 24 28 29 28 32 35 39 44 48 50 50 48 44 43 39
38 34 35 36 36 39 38 35 35 36 36 35 30 25 22 23 24 26 29 32 36 37 43 47 51 54 56 58 56 55 52 49
30 31 33 31 32 36 37 39 37 34 37 38 37 37 39 39 39 39 36 38 40 43 48 52 54 56 59 62 64 63 64 63
30 30 30 30 32 34 36 34 35 38 36 40 42 44 45 47 50 49 48 50 50 49 50 57 57 61 65 67 69 65 66 67
34 31 29 30 33 34 33 31 33 36 39 43 47 51 55 57 56 54 58 55 57 62 57 56 58 64 67 73 74 71 69 67
37 38 33 29 29 31 31 28 31 32 38 40 44 50 54 59 67 66 65 61 66 70 68 71 66 72 72 79 82 77 73 69
33 34 37 31 30 29 31 31 29 30 31 38 41 46 50 59 67 64 68 69 72 72 70 77 78 78 80 83 90 80 72 64
33 32 32 34 31 31 31 32 30 29 34 42 44 47 49 54 68 72 71 71 73 74 70 73 73 73 79 90 86 79 61 51
35 32 32 31 27 31 35 34 36 38 41 42 47 48 52 56 61 68 69 65 70 68 63 66 73 78 84 92 83 64 58 57
49 39 34 33 28 28 34 39 43 44 48 46 48 48 51 53 59 67 71 76 80 76 71 74 77 85 93 85 71 64 62 58
53 53 50 44 40 35 37 43 48 54 56 54 54 55 51 53 62 72 75 77 85 80 78 80 89 85 85 72 65 69 63 65
51 58 59 63 56 51 47 48 59 62 60 62 63 62 60 62 67 73 77 86 94 98 79 97 81 78 71 67 62 57 55 55

GFSFLT2_prec_cthk_279.txt.gz
RH
15 12 15 17 16 15 12 11 12 12 12 12 12 12 13 13 14 14 14 14 14 14 15 15 15 15 15 16 16 17 18 24
26 16 12 14 16 17 17 15 13 13 13 14 14 14 15 15 14 14 14 13 14 14 14 14 14 14 15 15 15 16 16 18
32 28 21 16 13 16 17 17 16 15 14 14 15 15 15 16 16 16 15 15 14 14 14 14 14 14 14 14 14 14 16 19
33 34 32 27 25 18 17 18 18 18 16 15 15 16 17 21 18 17 16 16 16 15 15 15 14 14 16 15 14 14 18 20
34 35 34 33 32 30 26 19 19 20 20 19 18 18 18 22 22 21 18 17 16 16 15 15 15 15 19 23 20 19 20 23
40 38 36 35 36 35 36 31 25 23 24 22 22 21 21 21 22 24 23 21 17 19 18 16 15 16 19 24 28 27 27 28
43 41 37 37 36 37 38 36 34 29 26 25 24 24 24 23 23 24 25 25 23 22 22 23 22 24 26 28 28 28 29 30
41 41 43 39 36 36 37 38 37 37 35 30 23 23 25 25 25 25 25 26 27 26 24 27 30 32 34 34 34 36 37 36
40 37 45 44 41 39 40 41 42 39 39 37 35 27 23 24 23 22 23 24 25 27 28 31 35 38 41 44 46 45 46 45
42 44 39 38 40 45 46 45 46 46 41 41 39 37 32 26 25 24 24 26 27 29 31 34 38 41 46 49 51 54 54 53
38 46 46 45 43 40 42 45 46 46 49 45 40 41 41 39 35 33 33 34 35 36 38 39 45 47 51 53 55 57 61 61
41 41 43 45 46 43 38 39 41 44 44 47 51 45 45 48 46 47 50 51 50 48 48 51 54 56 53 54 58 61 63 62
43 41 44 44 41 45 44 39 38 39 43 47 49 54 53 51 50 53 54 53 53 59 51 52 58 64 66 64 60 62 61 63
46 51 47 47 45 41 44 42 37 38 40 42 47 51 55 57 57 62 65 62 63 60 65 62 66 67 67 68 69 64 64 69
33 39 47 50 49 46 42 39 44 42 38 41 44 46 51 54 56 62 64 68 65 65 65 64 66 72 79 76 83 72 72 71
42 41 38 42 49 47 48 44 39 43 44 45 48 48 45 48 54 57 64 69 73 69 66 68 68 68 78 72 79 77 82 69
28 35 46 46 40 41 43 41 40 43 47 49 49 53 49 46 49 57 60 63 65 68 67 65 71 83 78 74 75 72 78 76
26 32 37 42 50 52 50 45 39 40 50 56 57 57 56 55 54 57 62 64 66 71 76 74 78 82 85 77 75 75 74 78
22 33 37 40 50 56 61 62 58 50 52 58 64 64 65 66 62 60 63 66 69 71 74 74 81 91 90 93 87 77 83 86
22 29 28 38 52 55 60 64 80 70 64 61 70 78 73 75 72 72 70 70 73 74 78 78 84 97 99 97 98 87 96 82

GFSFLT2_prec_cthk_282.txt.gz
RH
19 15 11 13 16 15 12 9 9 9 10 10 10 11 11 13 13 13 13 13 14 14 14 14 14 15 15 15 15 15 16 17
25 23 18 15 12 15 17 15 12 11 11 12 12 12 12 12 13 13 13 13 12 13 13 13 13 13 13 13 13 13 14 15
30 28 26 22 18 15 14 17 17 15 12 12 13 13 13 14 14 14 14 14 13 13 13 12 12 12 13 13 13 13 13 14
36 33 31 27 25 23 19 14 16 18 17 15 14 14 14 15 15 15 16 16 15 14 14 14 13 12 13 13 12 13 13 13
42 39 35 32 29 28 25 24 17 16 18 19 18 17 16 16 16 16 17 16 16 16 15 15 14 13 13 13 14 17 18 16
41 41 41 37 34 33 31 30 28 23 18 20 22 21 20 18 17 18 19 18 18 17 16 15 15 14 14 14 17 19 22 21
43 46 41 38 40 37 36 34 34 33 29 23 21 22 23 22 21 22 20 21 21 20 17 16 15 16 15 15 17 23 27 26
35 45 42 38 38 43 42 42 40 37 36 33 30 26 23 23 24 25 26 25 24 23 23 22 19 20 20 21 23 26 27 29
36 47 49 44 42 43 52 51 51 49 45 42 39 36 33 32 28 25 24 24 26 25 23 24 24 24 25 28 30 32 34 37
37 48 57 55 45 46 46 51 58 57 56 54 51 48 44 41 37 34 30 26 25 25 26 26 27 27 29 32 35 38 40 44
35 47 56 59 57 55 51 52 50 52 57 60 58 58 58 54 49 43 41 38 32 29 30 32 34 34 33 37 44 49 48 50
39 40 46 53 56 58 62 58 52 51 50 51 54 57 58 59 63 58 53 51 45 40 41 44 42 41 46 47 53 58 57 55
40 38 40 47 48 54 58 55 63 55 49 47 49 53 56 57 57 64 61 55 55 56 52 49 49 57 56 61 59 64 67 60
27 39 40 38 49 54 54 52 53 53 54 51 52 51 53 55 56 59 63 65 59 56 52 53 52 55 62 72 74 70 73 66
21 27 35 40 37 39 51 57 55 52 49 54 56 55 52 52 52 53 55 60 63 62 63 60 61 60 62 61 73 63 73 74
21 21 31 31 32 40 47 45 51 55 58 50 59 65 59 55 53 52 54 57 60 62 71 69 66 61 62 61 64 67 76 71
27 23 29 27 27 33 39 46 53 50 47 53 50 60 62 59 55 57 61 60 59 62 66 68 69 66 61 60 61 65 69 74
30 28 32 32 25 29 36 39 45 48 50 52 53 59 60 60 64 60 62 64 60 62 63 66 69 67 68 68 67 74 79 85
21 22 25 29 23 27 33 37 42 50 51 54 61 68 68 75 68 75 69 71 74 66 67 71 71 77 77 77 81 84 92 93
22 19 20 24 23 27 34 36 46 54 61 60 68 81 81 82 85 82 82 80 77 73 74 75 75 79 82 81 83 84 80 94

GFSFLT2_prec_cthk_285.txt.gz
RH
23 21 18 16 14 14 16 12 9 9 9 10 11 11 11 11 12 13 13 13 13 13 13 13 14 14 14 14 14 14 15 15
30 26 24 22 20 17 15 15 16 12 9 10 11 11 11 11 11 12 13 13 13 13 13 13 13 13 13 13 13 13 13 14
32 33 29 26 26 25 22 19 15 16 17 12 11 11 11 11 12 12 13 13 13 12 12 12 12 12 12 12 12 12 13 13
32 33 36 34 29 27 27 25 23 18 15 18 17 13 12 13 13 13 13 14 14 14 14 14 13 12 12 12 12 13 13 13
31 35 38 38 37 32 28 29 26 24 22 16 17 20 18 15 14 14 14 15 14 14 15 15 15 14 13 13 12 13 13 14
34 37 39 40 43 41 39 31 30 28 27 26 22 19 20 21 20 18 17 16 16 15 15 15 15 15 14 13 13 12 12 15
40 45 41 43 44 44 43 44 40 35 33 32 31 28 24 22 23 23 22 20 18 18 17 17 17 16 15 14 13 12 13 15
40 44 43 48 51 52 51 53 54 54 46 44 42 38 34 31 26 23 22 21 22 22 21 20 20 19 18 16 15 15 15 19
47 49 51 56 63 60 64 63 58 61 58 55 53 52 51 49 40 35 31 27 24 22 23 23 21 21 20 19 19 19 22 24
46 52 54 58 64 69 87 71 69 64 60 60 59 59 60 62 60 53 47 44 38 34 28 25 23 21 19 19 28 27 24 30
30 38 45 54 61 68 70 83 84 82 82 70 62 57 59 64 65 68 67 61 54 49 41 35 33 30 26 26 27 27 35 46
13 18 32 38 48 56 64 73 78 80 86 87 68 68 60 58 57 59 66 68 70 64 57 54 47 38 36 37 41 42 43 43
12 17 23 30 33 38 42 48 57 65 63 66 67 75 73 62 57 56 58 59 60 67 65 60 54 54 57 52 53 51 51 55
13 14 17 23 27 32 34 38 45 51 56 59 65 65 67 73 68 59 56 62 64 64 67 70 62 57 53 56 54 50 54 60
17 19 19 20 22 23 24 29 34 39 45 49 53 63 69 69 70 65 61 60 61 65 67 65 66 67 64 57 58 48 54 62
23 25 25 24 27 27 25 23 24 31 40 49 51 53 57 68 69 72 76 71 61 60 64 65 65 62 70 67 56 52 59 60
27 25 27 27 25 22 22 26 30 27 30 33 44 55 61 59 56 68 86 85 72 69 64 67 65 69 64 67 67 62 66 69
35 35 32 27 23 18 17 22 24 26 30 35 37 42 49 55 62 64 64 74 88 75 68 71 68 71 71 66 68 68 67 71
29 27 24 26 30 29 24 21 24 32 35 39 44 46 52 51 54 61 74 80 74 81 85 76 75 72 73 70 72 75 71 71
36 35 34 33 34 35 36 35 28 34 43 48 50 53 57 55 61 62 71 90 93 88 89 95 90 87 85 80 77 80 84 81

GFSFLT2_prec_cthk_288.txt.gz
RH
27 24 23 22 21 18 16 14 14 11 8 8 9 10 11 10 11 11 12 13 13 13 13 13 14 14 14 14 15 15 15 17
24 26 25 25 25 23 23 21 19 15 14 13 9 9 10 10 11 11 11 12 13 13 13 13 13 13 13 13 13 13 13 14
25 27 31 31 32 33 31 28 26 25 23 16 14 14 10 9 10 11 11 12 12 13 13 12 12 12 12 12 12 12 13 13
31 34 40 42 42 43 39 37 31 28 29 25 23 17 17 15 12 12 12 12 13 13 14 14 14 13 12 12 11 11 12 12
37 35 39 44 49 48 48 45 43 37 33 31 29 26 22 20 20 17 15 14 14 15 15 14 15 15 15 14 14 13 12 12
44 40 40 48 52 57 60 52 54 49 46 38 32 32 29 26 23 23 24 22 19 17 17 17 16 16 15 15 15 14 13 13
40 40 41 52 58 59 65 64 64 58 55 55 41 35 35 34 32 28 25 26 26 25 23 21 19 19 18 17 16 15 14 13
41 40 45 55 65 69 67 70 69 73 68 67 62 50 42 40 40 36 32 29 27 26 27 25 24 23 22 20 19 18 18 15
36 41 43 39 42 52 65 70 74 79 80 87 83 81 72 59 52 50 46 42 38 34 30 26 26 25 23 22 22 20 19 17
31 29 29 28 30 31 39 54 63 78 85 93 93 95 93 88 78 67 65 63 57 51 46 41 38 33 29 24 25 23 19 17
22 11 7 8 11 15 24 30 40 61 79 88 95 88 92 95 94 87 80 75 73 66 61 56 49 46 42 36 30 27 24 23
23 16 12 9 9 11 15 22 24 32 51 73 84 92 97 87 79 84 86 82 77 74 72 69 70 63 53 54 42 38 36 35
27 23 22 18 11 10 12 15 20 23 27 35 52 63 70 81 89 82 79 73 70 72 76 77 69 71 72 63 57 55 53 50
31 28 25 23 20 19 16 16 15 18 22 26 30 37 52 64 73 73 74 74 76 72 71 69 71 72 74 79 68 57 54 49
31 28 26 25 25 25 23 20 20 17 16 17 25 32 35 43 60 60 66 81 79 79 77 72 72 70 72 75 82 69 58 52
26 29 32 31 30 27 26 26 24 22 18 16 19 25 33 39 45 57 55 61 70 79 89 89 84 79 76 75 73 74 69 64
28 28 25 25 25 25 25 26 25 27 24 21 24 26 32 33 38 43 52 52 56 62 69 77 86 95 82 80 76 77 75 70
28 28 29 29 27 26 22 19 18 18 18 23 26 35 37 36 39 43 45 46 45 48 57 71 78 71 79 93 90 79 76 78
27 31 32 34 32 27 25 21 23 22 26 29 32 43 49 44 42 41 47 51 48 46 47 54 67 72 94 79 86 83 80 80
36 38 40 38 34 30 27 31 31 30 30 33 44 53 56 56 51 48 49 47 48 47 47 59 65 76 90 98 84 86 83 90

GFSFLT2_prec_cthk_291.txt.gz
RH
28 29 28 32 34 34 32 31 28 25 21 18 15 12 11 11 11 11 12 12 12 13 14 14 14 15 15 15 15 15 16 16
33 31 31 32 36 42 43 39 37 33 31 29 25 20 17 14 12 12 12 13 13 13 14 14 14 14 14 14 14 14 14 14
40 37 35 35 37 39 40 52 47 43 41 39 35 32 28 21 18 13 13 13 14 13 14 14 14 13 13 13 13 13 13 13
40 40 41 42 43 49 55 47 55 45 46 44 43 40 36 33 27 22 17 13 13 14 14 14 14 14 13 13 13 12 12 12
45 46 49 53 52 47 53 59 58 64 54 56 52 48 45 40 36 33 27 24 17 16 16 16 16 16 16 16 16 15 14 14
41 42 46 52 56 61 64 63 65 69 68 70 60 60 51 46 43 42 40 34 30 26 21 19 19 19 19 18 17 17 17 17
35 36 38 42 46 52 59 64 74 80 80 82 81 76 60 50 47 46 46 44 39 35 32 29 25 23 22 20 19 19 18 18
35 31 31 34 35 34 35 38 43 52 64 79 88 88 83 74 54 50 46 46 46 45 39 35 32 30 27 25 22 21 20 20
28 26 26 22 19 15 11 12 16 20 30 50 74 90 97 92 84 92 73 62 55 49 44 43 38 33 28 26 27 25 25 24
27 27 26 25 23 19 16 16 17 15 17 21 38 64 86 93 96 84 86 92 86 76 67 60 55 52 45 37 31 31 26 24
25 26 27 28 27 29 27 26 21 20 17 18 20 28 44 69 85 96 90 95 89 93 88 81 72 66 62 58 51 47 41 33
33 34 35 33 32 31 31 32 28 25 23 21 21 25 28 32 42 67 83 88 91 92 93 94 92 88 80 70 64 58 55 50
44 44 43 43 43 38 33 25 27 28 26 24 25 22 26 33 34 38 55 74 86 93 93 93 94 94 97 90 86 75 69 60
35 35 35 34 31 30 26 22 21 21 21 23 24 25 27 28 28 32 33 46 66 80 87 95 95 89 88 92 92 83 78 71
24 23 24 25 20 16 15 14 14 13 12 16 21 23 26 27 27 26 28 25 37 56 70 84 90 91 89 89 86 78 74 74
22 23 22 20 19 18 17 16 14 16 20 16 16 16 23 24 31 31 31 29 29 33 51 61 72 79 87 92 84 81 85 78
23 23 23 25 24 24 22 21 19 18 20 19 19 22 23 30 40 43 38 36 33 34 36 44 60 67 74 84 84 78 77 82
25 27 31 33 32 28 26 23 24 26 29 27 28 32 33 38 42 54 53 45 41 38 41 44 42 45 50 59 65 73 74 79
31 33 36 36 35 31 27 24 27 34 35 35 37 38 39 41 49 53 61 59 53 47 43 45 44 42 44 46 58 66 73 80
42 43 43 44 42 40 33 30 34 41 47 47 46 48 51 51 57 66 69 68 66 56 49 48 44 43 42 47 53 56 60 62

GFSFLT2_prec_cthk_294.txt.gz
RH
37 37 36 36 36 35 36 39 37 35 36 37 33 29 25 22 19 17 17 17 16 16 16 17 17 17 18 19 18 18 18 19
39 40 40 39 39 43 44 45 43 61 49 38 42 42 38 34 28 24 19 19 20 19 18 18 18 19 18 19 19 19 17 17
41 43 44 46 47 49 52 54 57 53 57 65 40 42 45 42 40 36 30 24 20 21 21 20 20 19 19 18 18 17 17 16
40 42 46 50 54 55 56 56 57 61 57 63 68 63 47 45 45 43 41 35 30 23 21 22 22 21 20 19 18 17 17 16
41 45 47 51 56 59 62 65 68 72 77 73 65 72 71 59 46 47 45 44 39 36 31 26 24 24 24 23 22 21 20 19
37 38 39 40 43 45 46 49 53 55 59 63 67 70 72 77 79 58 50 47 46 42 40 37 33 29 29 28 28 25 23 22
29 29 29 31 30 29 28 27 26 25 27 32 36 41 56 67 78 77 66 58 51 46 43 41 39 38 35 32 31 30 29 26
25 24 23 22 21 23 23 23 22 22 22 21 21 28 35 37 49 65 82 83 74 69 61 51 46 46 40 35 32 32 31 30
24 25 26 26 25 25 24 25 27 28 28 28 27 25 25 31 39 42 69 83 94 81 70 69 60 54 50 46 37 33 32 31
27 28 30 30 31 32 33 33 34 34 35 33 31 30 27 24 30 32 37 50 60 73 70 75 74 67 60 52 48 42 36 35
30 31 32 34 35 36 38 39 38 38 39 36 31 29 29 29 28 30 29 36 39 45 57 66 76 77 72 67 61 60 56 50
30 32 34 38 39 41 44 45 41 37 35 33 29 26 22 20 23 30 31 34 37 39 50 67 73 78 80 84 75 74 70 66
25 22 21 22 23 22 21 19 17 17 18 18 15 13 13 12 13 19 28 36 38 37 39 47 70 73 85 86 89 79 79 74
20 19 18 19 19 19 18 16 16 14 14 14 15 16 17 19 22 22 22 29 38 41 40 39 42 66 90 87 86 91 83 77
22 22 23 23 22 21 21 21 19 16 17 17 20 22 22 23 25 26 30 32 34 39 41 38 42 48 66 88 94 93 96 84
25 26 27 27 26 26 26 24 23 24 24 26 26 26 28 27 28 32 36 37 44 43 43 40 43 43 50 63 79 84 92 96
28 30 32 33 33 32 31 31 31 32 29 31 34 33 36 34 36 36 42 44 48 49 48 47 45 44 46 51 57 77 83 89
34 36 39 40 40 40 37 42 42 40 38 39 40 40 42 45 44 48 49 53 51 57 55 53 52 54 48 49 53 56 71 75
39 43 43 46 45 44 46 51 55 49 44 41 41 45 52 57 57 59 56 62 62 64 61 57 55 55 52 53 51 52 54 55
35 41 45 47 52 61 65 63 55 46 43 45 49 55 61 66 73 75 71 70 77 73 78 62 57 56 56 54 52 51 51 49

GFSFLT2_prec_cthk_297.txt.gz
RH
34 36 39 40 42 44 45 49 49 46 48 59 52 46 36 31 27 26 23 23 24 25 23 23 23 23 24 24 24 25 26 25
36 39 40 41 44 47 48 53 57 58 58 55 60 64 61 52 43 35 33 30 25 25 26 26 25 25 26 26 27 28 27 26
41 43 45 47 46 46 48 52 56 57 58 59 58 61 69 77 61 55 46 42 41 36 29 27 27 27 26 26 28 28 28 27
36 38 42 46 47 50 53 51 51 52 55 61 58 53 60 59 59 65 63 54 44 44 40 35 33 28 26 26 27 27 27 25
29 31 32 35 36 36 36 34 33 36 40 45 42 42 47 46 52 55 51 59 61 47 44 42 41 40 35 30 27 27 26 26
23 25 28 28 27 27 28 29 26 24 23 23 24 28 32 34 38 41 44 51 47 55 53 47 42 41 39 37 34 30 28 27
22 22 22 22 23 23 23 23 23 23 23 23 23 23 24 30 37 43 48 46 50 56 59 64 53 46 44 36 35 33 33 32
21 20 20 21 21 22 22 22 23 25 26 28 30 31 31 28 29 37 45 51 50 55 55 60 60 63 60 52 45 36 35 34
24 25 25 25 25 26 26 26 26 27 30 31 31 31 30 27 28 31 36 39 48 52 56 53 44 53 65 59 51 48 38 38
24 25 27 29 30 33 34 35 34 34 33 34 34 35 34 31 26 27 32 38 39 37 43 43 43 40 50 60 65 57 46 42
24 24 24 25 25 25 24 25 27 28 27 26 25 24 25 30 28 22 21 21 29 36 41 44 46 42 42 51 67 71 52 48
21 22 20 19 19 19 18 19 19 19 18 17 15 15 14 14 15 16 17 16 18 22 30 41 43 41 51 58 74 72 64 56
22 20 21 22 23 22 22 22 22 22 23 23 20 20 20 19 20 20 20 20 22 23 26 31 36 46 44 44 41 47 67 73
23 24 25 25 27 28 29 29 28 29 29 31 32 28 27 28 29 27 25 23 23 26 33 35 34 37 51 49 42 46 61 84
27 27 28 29 32 33 34 35 34 33 33 33 36 35 36 36 37 35 32 33 34 33 35 43 40 37 44 57 55 54 57 64
28 30 32 34 36 38 40 38 39 42 43 44 44 40 40 39 41 45 43 40 40 43 43 44 51 45 44 46 60 61 61 76
31 33 36 41 46 48 44 49 55 54 50 46 47 45 44 45 48 51 51 52 52 50 48 48 56 57 49 47 46 54 52 67
36 40 44 48 49 50 53 54 58 58 59 54 49 49 48 54 60 62 62 64 66 60 59 56 56 64 58 54 54 54 57 68
42 45 46 49 51 56 57 66 69 66 59 55 51 52 57 67 74 77 83 85 81 74 73 69 60 67 66 60 57 58 56 59
42 50 48 52 56 62 65 71 65 60 55 55 57 61 76 80 78 88 95 91 93 79 81 81 78 70 67 66 61 59 57 57